Toronto, Ontario

10:07 PM EST on February 12, 2016 (GMT -0500)
Toronto-City Centre

Weather History for CYTZ - February, 2014

Change the Weather History Date:

Sunday, February 2, 2014

  Actual Average Record
Temperature  
Mean Temperature 26 °F -  
Max Temperature 29 °F 31 °F 42 °F (2006)
Min Temperature 21 °F 20 °F 6 °F (2015)
Degree Days  
Heating Degree Days 39    
Moisture  
Dew Point 25 °F    
Average Humidity 83    
Maximum Humidity 100    
Minimum Humidity 60    
Precipitation  
Precipitation 0.04 in 0.07 in - ()
Sea Level Pressure  
Sea Level Pressure 30.03 in    
Wind  
Wind Speed 9 mph ()    
Max Wind Speed 15 mph    
Max Gust Speed 20 mph    
Visibility 7.3 miles    
Events Rain , Snow    
Averages and records for this station are not official NWS values.
T = Trace of Precipitation, MM = Missing Value Source: Averaged Metar Reports

Daily Weather History Graph

Daily Weather History Graph

Search for Another Location

Airport or City:

Trip Planner

Search our weather history database for the weather conditions in past years. The results will help you decide how hot, cold, wet, or windy it might be!

Date:

Astronomy

Feb. 02, 2014 Rise Set
Actual Time 7:32 AM EST 5:30 PM EST
Civil Twilight 7:02 AM EST 6:00 PM EST
Nautical Twilight 6:28 AM EST 6:34 PM EST
Astronomical Twilight 5:54 AM EST 7:08 PM EST
Moon 8:51 AM EST (2/2) 9:20 PM EST (2/2)
Length of Visible Light 10h 58m
Length of Day
9h 57m
Waxing Crescent, 11% of the Moon is Illuminated
Feb 2
Waxing Crescent
Feb 6
First Quarter
Feb 14
Full
Feb 22
Last Quarter
Mar 1
New

Hourly Weather History & Observations

Time (EST) Temp. Windchill Dew Point Humidity Pressure Visibility Wind Dir Wind Speed Gust Speed Precip Events Conditions
12:00 AM 33.8 °F 27.0 °F 32.0 °F 93% 29.85 in 1.8 mi WSW 8.1 mph - N/A Snow Light Snow
12:04 AM 33.8 °F 27.0 °F 32.0 °F 93% 29.85 in 2.0 mi WSW 8.1 mph - N/A Snow Light Snow
12:54 AM 33.8 °F 26.4 °F 32.0 °F 93% 29.86 in 1.8 mi WSW 9.2 mph - N/A Snow Light Snow
1:00 AM 33 °F - 33 °F 97% 29.87 in 1 mi WSW 9.2 mph - - Snow Light Snow
1:00 AM 32.0 °F 24.2 °F 32.0 °F 100% 29.86 in 1.5 mi West 9.2 mph - N/A Snow Light Snow
1:01 AM 32.0 °F 24.8 °F 32.0 °F 100% 29.86 in 1.5 mi West 8.1 mph - N/A Snow Light Snow
1:02 AM 32.0 °F 24.8 °F 32.0 °F 100% 29.87 in 1.5 mi West 8.1 mph - N/A Snow Light Snow
1:20 AM 33.8 °F 27.0 °F 32.0 °F 93% 29.87 in 2.0 mi WNW 8.1 mph - N/A Snow Light Snow
1:24 AM 33.8 °F 25.8 °F 33.8 °F 100% 29.87 in 3.0 mi WNW 10.4 mph - N/A Snow Light Snow
1:31 AM 33.8 °F 26.4 °F 32.0 °F 93% 29.88 in 5.0 mi WNW 9.2 mph - N/A Snow Light Snow
1:36 AM 33.8 °F 27.7 °F 32.0 °F 93% 29.88 in 5.0 mi WNW 6.9 mph - N/A   Mostly Cloudy
1:37 AM 33.8 °F 27.7 °F 32.0 °F 93% 29.88 in 5.0 mi WNW 6.9 mph - N/A   Scattered Clouds
1:42 AM 33.8 °F 27.0 °F 32.0 °F 93% 29.88 in 5.0 mi WNW 8.1 mph - N/A   Overcast
1:44 AM 33.8 °F 27.0 °F 32.0 °F 93% 29.88 in 6.0 mi WNW 8.1 mph - N/A   Overcast
1:47 AM 33.8 °F 27.0 °F 32.0 °F 93% 29.88 in 6.0 mi WNW 8.1 mph - N/A Rain Light Rain
1:56 AM 33.8 °F 26.4 °F 30.2 °F 87% 29.89 in 8.0 mi WNW 9.2 mph - N/A   Overcast
2:00 AM 33.8 °F 27.0 °F 30.2 °F 87% 29.90 in 8.0 mi WNW 8.1 mph - N/A   Overcast
3:00 AM 32.0 °F 22.5 °F 28.4 °F 87% 29.92 in 9.0 mi NW 12.7 mph - N/A   Overcast
3:44 AM 32.0 °F 25.6 °F 28.4 °F 87% 29.94 in 9.0 mi NW 6.9 mph - N/A   Mostly Cloudy
4:00 AM 32.0 °F 22.5 °F 28.4 °F 87% 29.94 in 9.0 mi WNW 12.7 mph - N/A   Overcast
5:00 AM 30.2 °F 20.8 °F 26.6 °F 86% 29.96 in 9.0 mi NW 11.5 mph 19.6 mph N/A   Overcast
6:00 AM 30.2 °F 23.4 °F 26.6 °F 86% 29.99 in 9.0 mi NW 6.9 mph - N/A   Overcast
7:00 AM 29 °F - 25 °F 78% 30.01 in 10 mi NW 10.4 mph - -   Clear
7:00 AM 28.4 °F 18.5 °F 24.8 °F 86% 30.01 in 9.0 mi NW 11.5 mph - N/A   Overcast
8:00 AM 28.4 °F 19.7 °F 24.8 °F 86% 30.01 in 9.0 mi NNW 9.2 mph - N/A   Overcast
9:00 AM 28.4 °F 23.3 °F 23.0 °F 80% 30.06 in 9.0 mi NNW 4.6 mph - N/A   Overcast
10:00 AM 28.4 °F 18.5 °F 21.2 °F 74% 30.08 in 9.0 mi NW 11.5 mph - N/A   Overcast
11:00 AM 28.4 °F 19.7 °F 23.0 °F 80% 30.07 in 9.0 mi NW 9.2 mph - N/A   Overcast
12:00 PM 28.4 °F 21.2 °F 23.0 °F 80% 30.09 in 9.0 mi NW 6.9 mph - N/A   Overcast
1:00 PM 29 °F - 24 °F 73% 30.08 in 10 mi WNW 6.9 mph - -   Overcast
1:00 PM 28.4 °F 20.4 °F 23.0 °F 80% 30.08 in 9.0 mi WNW 8.1 mph - N/A   Overcast
2:00 PM 28.4 °F 18.0 °F 23.0 °F 80% 30.09 in 9.0 mi WNW 12.7 mph - N/A   Overcast
3:00 PM 28.4 °F 18.5 °F 21.2 °F 74% 30.09 in 9.0 mi West 11.5 mph - N/A   Overcast
3:10 PM 30.2 °F 21.9 °F 23.0 °F 75% 30.09 in 9.0 mi WNW 9.2 mph - N/A   Overcast
3:11 PM 30.2 °F 21.9 °F 23.0 °F 75% 30.09 in 9.0 mi West 9.2 mph - N/A   Overcast
3:13 PM 28.4 °F 18.0 °F 21.2 °F 74% 30.09 in 9.0 mi West 12.7 mph - N/A   Overcast
3:18 PM 28.4 °F 19.1 °F 21.2 °F 74% 30.09 in 9.0 mi West 10.4 mph - N/A   Overcast
3:19 PM 28.4 °F 19.1 °F 23.0 °F 80% 30.09 in 9.0 mi West 10.4 mph - N/A   Overcast
4:00 PM 28.4 °F 17.0 °F 21.2 °F 74% 30.11 in 9.0 mi West 15.0 mph - N/A   Mostly Cloudy
5:00 PM 26.6 °F 16.2 °F 19.4 °F 74% 30.15 in 9.0 mi West 11.5 mph - N/A   Overcast
6:00 PM 26.6 °F 15.2 °F 17.6 °F 69% 30.17 in 9.0 mi West 13.8 mph - N/A   Overcast
7:00 PM 25 °F - 17 °F 60% 30.20 in 10 mi West 11.5 mph - -   Overcast
7:00 PM 24.8 °F 14.0 °F 17.6 °F 74% 30.20 in 9.0 mi West 11.5 mph 17.3 mph N/A   Overcast
8:00 PM 23.0 °F 13.9 °F 15.8 °F 74% 30.21 in 9.0 mi WNW 8.1 mph - N/A   Partly Cloudy
9:00 PM 23.0 °F 11.1 °F 15.8 °F 74% 30.23 in 9.0 mi NW 12.7 mph - N/A   Partly Cloudy
9:32 PM 23.0 °F 11.7 °F 15.8 °F 74% 30.25 in 9.0 mi WNW 11.5 mph - N/A Snow Light Snow
10:00 PM 23.0 °F 11.1 °F 15.8 °F 74% 30.25 in 9.0 mi NW 12.7 mph - N/A Snow Light Snow
10:08 PM 23.0 °F 11.7 °F 15.8 °F 74% 30.26 in 9.0 mi NW 11.5 mph - N/A   Mostly Cloudy
10:28 PM 23.0 °F 11.7 °F 15.8 °F 74% 30.25 in 9.0 mi NW 11.5 mph 17.3 mph N/A Snow Light Snow
10:37 PM 23.0 °F 11.1 °F 15.8 °F 74% 30.26 in 9.0 mi WNW 12.7 mph - N/A   Scattered Clouds
11:00 PM 21.2 °F 9.5 °F 15.8 °F 80% 30.25 in 9.0 mi WNW 11.5 mph - N/A   Mostly Cloudy